[[{"header":{"parameterUnit":"m.s-1","parameterCategory":1,"la1":30.2991,"la2":30.254,"lo1":-89.0895,"lo2":-89.0444,"dy":0.0017,"dx":0.0017,"nx":28,"ny":28,"refTime":"2023-09-29T03:00:00:Z","depth":0,"parameterNumber":2,"parameterNumberName":"U-component_of_WINDS"},"data":[0,0,0,0,0,0,0,0,0,0,0,0,0,0,0,0,0,0,0,0,0,0,0,0,0,0,0,0,0,0,0,0,0,0,0,0,0,0,0,0,0,0,0,0,0,0,0,0,0,0,0,0,0,0,0,0,0,0,-3.2873,-3.2874,0,-3.2949,-3.295,-3.2951,-3.2859,-3.2855,-3.2852,-3.2849,-3.2931,-3.2936,-3.2941,0,0,0,0,0,0,0,0,0,0,0,0,0,-3.2653,-3.2657,-3.2873,-3.2874,-3.2875,-3.2949,-3.295,-3.2951,-3.2859,-3.2855,-3.2851,-3.2847,-3.2929,-3.2935,-3.2942,0,0,0,0,0,0,0,0,0,0,0,0,0,-3.2741,-3.2659,-3.2873,-3.2838,-3.2836,-3.2949,-3.295,-3.2952,-3.286,-3.2855,-3.285,-3.2845,-3.2927,-3.2934,-3.2942,-3.3095,0,0,-3.2967,-3.2971,0,0,0,0,0,0,0,0,-3.2736,-3.2749,-3.2842,-3.2841,-3.2838,-3.2889,-3.2902,-3.3,-3.2862,-3.2851,-3.2849,-3.2843,-3.2921,-3.2929,-3.2955,-3.3099,-3.3102,-3.2968,-3.2973,-3.2976,-3.2978,0,0,0,0,0,0,0,-3.273,-3.2745,-3.2903,-3.2844,-3.2841,-3.282,-3.2827,-3.2921,-3.2914,-3.2852,-3.2845,-3.2855,-3.2919,-3.2948,-3.2956,-3.3103,-3.2968,-3.2975,-3.298,-3.2983,-3.3378,-3.3384,0,0,0,0,0,0,-3.2727,-3.2741,-3.2901,-3.2906,-3.2773,-3.2828,-3.2836,-3.2878,-3.2913,-3.2913,-3.2859,-3.2851,-3.2936,-3.2947,-3.2959,-3.314,-3.2976,-3.2984,-3.2988,-3.3373,-3.338,-3.3386,0,0,0,0,0,0,-3.2723,-3.2742,-3.2898,-3.2822,-3.284,-3.2837,-3.2886,-3.2882,-3.291,-3.2919,-3.2918,-3.2889,-3.2933,-3.2947,-3.3062,-3.3142,-3.2987,-3.2995,-3.3366,-3.3375,-3.3383,-3.3505,0,0,0,0,0,0,-3.2717,-3.2741,-3.2798,-3.2823,-3.2844,-3.2999,-3.2891,-3.2888,-3.2924,-3.2913,-3.2946,-3.2947,-3.293,-3.305,-3.307,-3.315,-3.3001,-3.3359,-3.337,-3.338,-3.3494,-3.3516,-3.3536,0,0,0,0,0,-3.2709,-3.283,-3.2801,-3.2821,-3.2915,-3.3003,-3.3015,-3.2992,-3.2931,-3.2989,-3.2995,-3.2946,-3.313,-3.3063,-3.3084,-3.3168,-3.3354,-3.3367,-3.3379,-3.3484,-3.3512,-3.3536,0,0,0,0,0,0,-3.2815,-3.2832,-3.2801,-3.2933,-3.2967,-3.2987,-3.3059,-3.3022,-3.3075,-3.3063,-3.3033,-3.3041,-3.3163,-3.3177,-3.3102,-3.3319,-3.3232,-3.325,-3.3305,-3.3331,-3.3352,-3.3346,-3.3007,0,0,0,0,0,-3.2853,-3.2922,-3.2935,-3.305,-3.3069,-3.3062,-3.3099,-3.3079,-3.3113,-3.3128,-3.3141,-3.3178,-3.3244,-3.3289,-3.335,-3.3496,-3.3502,-3.3564,-3.3585,-3.3603,-3.3618,-3.3698,-3.3726,-3.3428,-3.3428,-3.3427,0,0,-3.2933,-3.2952,-3.2997,-3.3072,-3.3096,-3.317,-3.3074,-3.3156,-3.3211,-3.314,-3.3249,-3.3261,-3.33,-3.3431,-3.349,-3.3447,-3.3702,-3.3619,-3.3633,-3.3639,-3.3714,-3.3742,-3.3767,-3.3436,-3.3435,-3.3433,0,0,-3.3117,-3.3138,-3.3236,-3.3263,-3.33,-3.3295,-3.3319,-3.3346,-3.3351,-3.3459,-3.3408,-3.3474,-3.3589,-3.3619,-3.365,-3.3848,-3.3806,-3.3869,-3.398,-3.4058,-3.4081,-3.4102,-3.4173,-3.4199,-3.3885,-3.3885,-3.3885,0,-3.3213,-3.332,-3.3292,-3.3378,-3.3413,-3.3352,-3.3453,-3.3481,-3.3537,-3.3563,-3.3514,-3.3658,-3.368,-3.3818,-3.3866,-3.3893,-3.3921,-3.3865,-3.408,-3.41,-3.4119,-3.4187,-3.4214,-3.3892,-3.3892,-3.3891,-3.389,0,-3.3436,-3.3512,-3.3588,-3.3643,-3.3687,-3.378,-3.3768,-3.3816,-3.3792,-3.3793,-3.3905,-3.393,-3.3996,-3.4027,-3.4005,-3.4163,-3.4135,-3.4084,-3.3996,-3.4155,-3.4219,-3.4245,-3.3903,-3.39,-3.3898,-3.3896,0,0,-3.3687,-3.3727,-3.3755,-3.378,-3.3818,-3.3877,-3.3969,-3.4032,-3.4074,-3.4116,-3.4193,-3.4292,-3.4245,-3.428,-3.4261,-3.433,-3.4487,-3.427,-3.427,-3.431,-3.4664,-3.4703,-3.4733,-3.4459,-3.4464,-3.4468,-3.4661,0,-3.3872,-3.4028,-3.4007,-3.4158,-3.4229,-3.4173,-3.4253,-3.4286,-3.429,-3.4352,-3.4356,-3.4428,-3.436,-3.438,-3.4446,-3.4454,-3.4558,-3.444,-3.4532,-3.4536,-3.4523,-3.4766,-3.4807,-3.4987,-3.4685,-3.469,-3.4693,0,-3.4107,-3.4157,-3.4315,-3.4343,-3.4372,-3.4444,-3.4502,-3.4561,-3.4599,-3.4597,-3.4637,-3.4607,-3.47,-3.4612,-3.4741,-3.4662,-3.4699,-3.4709,-3.4715,-3.4723,-3.4623,-3.478,-3.5044,-3.5071,-3.4731,-3.4728,-3.4725,0,-3.4275,-3.4382,-3.449,-3.4513,-3.4549,-3.4601,-3.4619,-3.4651,-3.4692,-3.4743,-3.4769,-3.4831,-3.4865,-3.4915,-3.4903,-3.4839,-3.5036,-3.4946,-3.5038,-3.5039,-3.5082,-3.5079,-3.5355,-3.5106,-3.5106,-3.5105,-3.5104,0,-3.4483,-3.4582,-3.4566,-3.4633,-3.4743,-3.4719,-3.4829,-3.484,-3.487,-3.4939,-3.4896,-3.4962,-3.4942,-3.5008,-3.5,-3.5109,-3.5125,-3.5127,-3.5124,-3.5131,-3.5131,-3.5155,-3.5142,-3.5112,-3.5111,-3.5109,-3.5108,0,-3.4688,-3.4681,-3.4796,-3.4821,-3.483,-3.491,-3.4932,-3.4996,-3.4997,-3.5086,-3.5105,-3.5108,-3.5184,-3.5176,-3.5262,-3.5256,-3.5392,-3.5374,-3.5379,-3.5375,-3.5468,-3.546,-3.5769,-3.5809,-3.5534,-3.5536,-3.5538,0,-3.4821,-3.4896,-3.4929,-3.4972,-3.4993,-3.5063,-3.5104,-3.5084,-3.5129,-3.5178,-3.5237,-3.5309,-3.5365,-3.5489,-3.55,-3.5565,-3.5548,-3.5653,-3.5558,-3.5564,-3.5551,-3.5546,-3.5554,-3.5671,-3.5674,-3.5677,-3.5679,0,-3.5059,-3.5052,-3.5111,-3.5172,-3.5221,-3.5268,-3.531,-3.5348,-3.5332,-3.5385,-3.5462,-3.5506,-3.5593,-3.5666,-3.5728,-3.5748,-3.5712,-3.5709,-3.5733,-3.5741,-3.5742,-3.5743,-3.543,-3.5701,-3.5699,-3.5697,-3.5696,-3.5695,-3.5232,-3.5296,-3.533,-3.5399,-3.5429,-3.5469,-3.5531,-3.554,-3.5603,-3.5671,-3.5657,-3.5744,-3.5781,-3.5862,-3.5888,-3.5957,-3.592,-3.5956,-3.5965,-3.5974,-3.5985,-3.5731,-3.5969,-3.5968,-3.5967,-3.5967,-3.5966,0,-3.5467,-3.5486,-3.555,-3.561,-3.5665,-3.5625,-3.567,-3.5719,-3.5796,-3.5833,-3.589,-3.5979,-3.605,-3.6066,-3.6135,-3.6187,-3.6172,-3.6205,-3.6201,-3.6207,-3.6014,-3.5986,-3.6216,-3.6216,-3.6216,-3.6216,-3.6216,-3.6216,-3.5596,-3.5703,-3.5701,-3.5824,-3.5842,-3.5926,-3.5956,-3.5994,-3.6024,-3.6125,-3.6183,-3.6193,-3.6223,-3.6294,-3.6358,-3.6361,-3.6388,-3.6429,-3.6425,-3.6245,-3.622,-3.6196,-3.617,-3.6435,-3.6435,-3.6612,-3.6614,-3.6615]},{"header":{"parameterUnit":"m.s-1","parameterCategory":1,"la1":30.2991,"la2":30.254,"lo1":-89.0895,"lo2":-89.0444,"dy":0.0017,"dx":0.0017,"nx":28,"ny":28,"refTime":"2023-09-29T03:00:00:Z","depth":0,"parameterNumber":3,"parameterNumberName":"V-component_of_WINDS"},"data":[0,0,0,0,0,0,0,0,0,0,0,0,0,0,0,0,0,0,0,0,0,0,0,0,0,0,0,0,0,0,0,0,0,0,0,0,0,0,0,0,0,0,0,0,0,0,0,0,0,0,0,0,0,0,0,0,0,0,2.1764,2.1764,0,2.1746,2.1746,2.1745,2.1761,2.1762,2.1763,2.1763,2.1737,2.1736,2.1734,0,0,0,0,0,0,0,0,0,0,0,0,0,2.1808,2.1807,2.1764,2.1764,2.1764,2.1746,2.1746,2.1745,2.1761,2.1762,2.1763,2.1764,2.1737,2.1736,2.1734,0,0,0,0,0,0,0,0,0,0,0,0,0,2.1789,2.1807,2.1764,2.177,2.177,2.1746,2.1746,2.1745,2.1761,2.1762,2.1763,2.1764,2.1738,2.1736,2.1734,2.1701,0,0,2.1728,2.1727,0,0,0,0,0,0,0,0,2.179,2.1787,2.1769,2.1769,2.177,2.1757,2.1751,2.173,2.1761,2.1764,2.1763,2.1764,2.1742,2.174,2.1734,2.17,2.1699,2.1728,2.1727,2.1726,2.1725,0,0,0,0,0,0,0,2.1791,2.1788,2.1757,2.1769,2.1769,2.1771,2.177,2.1747,2.1747,2.1764,2.1765,2.1763,2.1743,2.1736,2.1734,2.1699,2.1728,2.1726,2.1725,2.1724,2.1637,2.1636,0,0,0,0,0,0,2.1793,2.1789,2.1757,2.1756,2.1783,2.177,2.1768,2.176,2.1748,2.1747,2.1762,2.1764,2.1739,2.1736,2.1733,2.1693,2.1726,2.1724,2.1723,2.1638,2.1637,2.1635,0,0,0,0,0,0,2.1794,2.179,2.1758,2.1773,2.1769,2.1768,2.1759,2.1759,2.1752,2.1747,2.1746,2.1756,2.174,2.1736,2.171,2.1693,2.1723,2.1721,2.1639,2.1638,2.1636,2.1615,0,0,0,0,0,0,2.1795,2.179,2.1779,2.1773,2.1768,2.1737,2.1758,2.1758,2.175,2.1752,2.174,2.1739,2.174,2.1713,2.1708,2.1691,2.172,2.1641,2.1639,2.1637,2.1617,2.1612,2.1609,0,0,0,0,0,2.1796,2.1772,2.1778,2.1774,2.1755,2.1736,2.1733,2.1736,2.1748,2.1736,2.1733,2.174,2.1696,2.171,2.1704,2.1686,2.1642,2.1639,2.1637,2.1619,2.1613,2.1609,0,0,0,0,0,0,2.1773,2.1771,2.1778,2.1751,2.1744,2.1739,2.1723,2.1731,2.1718,2.172,2.1722,2.172,2.1692,2.1687,2.1702,2.1654,2.167,2.1667,2.1659,2.1653,2.165,2.165,2.1718,0,0,0,0,0,2.1766,2.1753,2.1751,2.1727,2.1724,2.1724,2.1716,2.172,2.1711,2.1707,2.1702,2.1691,2.1675,2.1664,2.1649,2.1617,2.1614,2.1602,2.1598,2.1595,2.1591,2.1573,2.1567,2.1627,2.1627,2.1627,0,0,2.1748,2.1746,2.1737,2.1723,2.1717,2.1702,2.1721,2.1704,2.1692,2.1704,2.1679,2.1675,2.1664,2.1635,2.1621,2.1629,2.1574,2.1591,2.1589,2.1587,2.157,2.1564,2.1559,2.1625,2.1626,2.1626,0,0,2.1709,2.1707,2.1687,2.1682,2.1675,2.1676,2.1671,2.1665,2.1663,2.164,2.1649,2.1634,2.1606,2.1598,2.159,2.155,2.1555,2.1544,2.1522,2.1505,2.15,2.1496,2.1481,2.1475,2.1541,2.1541,2.1541,0,2.1688,2.1667,2.1675,2.1658,2.1651,2.1664,2.1643,2.1637,2.1624,2.1618,2.1628,2.1595,2.1588,2.1557,2.1547,2.1541,2.1534,2.1545,2.1501,2.1497,2.1493,2.1478,2.1472,2.154,2.154,2.154,2.154,0,2.1641,2.1627,2.1611,2.1602,2.1593,2.1574,2.1577,2.1567,2.1572,2.1571,2.1547,2.154,2.1524,2.1517,2.152,2.1486,2.1491,2.1501,2.1517,2.1486,2.1472,2.1466,2.1538,2.1538,2.1539,2.1539,0,0,2.1584,2.1581,2.1575,2.1571,2.1565,2.1553,2.1534,2.1521,2.1512,2.1503,2.1487,2.1464,2.1474,2.1465,2.1467,2.1453,2.142,2.1464,2.1464,2.1455,2.1381,2.1373,2.1366,2.1425,2.1424,2.1423,2.1382,0,2.1544,2.1514,2.1521,2.149,2.1476,2.149,2.1473,2.1467,2.1467,2.1453,2.1452,2.1436,2.145,2.1445,2.1431,2.1427,2.1405,2.1431,2.1407,2.1406,2.1408,2.1359,2.135,2.1311,2.1377,2.1376,2.1375,0,2.1493,2.1485,2.1453,2.1451,2.1445,2.143,2.1419,2.1407,2.14,2.1401,2.1392,2.1398,2.1378,2.1396,2.1367,2.1384,2.1376,2.1373,2.1371,2.1367,2.1387,2.1353,2.1299,2.1293,2.1367,2.1367,2.1368,0,2.1453,2.1435,2.1413,2.141,2.1406,2.1395,2.1393,2.1387,2.1379,2.1369,2.1363,2.135,2.1342,2.1331,2.1333,2.1346,2.1303,2.1322,2.1301,2.1301,2.1289,2.129,2.1232,2.1287,2.1287,2.1287,2.1287,0,2.1407,2.1386,2.1396,2.1382,2.136,2.1369,2.1345,2.1344,2.134,2.1325,2.1336,2.1321,2.1326,2.1311,2.1312,2.1288,2.1284,2.1283,2.1283,2.1281,2.1281,2.1273,2.1275,2.1285,2.1286,2.1286,2.1286,0,2.1357,2.1363,2.1341,2.1341,2.134,2.1323,2.1322,2.1309,2.1311,2.1292,2.1288,2.1289,2.1273,2.1274,2.1255,2.1256,2.1225,2.1229,2.1228,2.1229,2.1208,2.1209,2.1141,2.1133,2.1195,2.1194,2.1194,0,2.1326,2.1312,2.1311,2.1303,2.1301,2.1288,2.128,2.1288,2.1279,2.1271,2.1259,2.1244,2.1232,2.1205,2.1203,2.1189,2.1191,2.1169,2.1189,2.1187,2.1189,2.1189,2.1187,2.1164,2.1163,2.1163,2.1162,0,2.127,2.1275,2.1265,2.1256,2.1248,2.124,2.1234,2.1226,2.1234,2.1223,2.1208,2.12,2.1182,2.1166,2.1153,2.1148,2.1155,2.1157,2.1151,2.1147,2.1147,2.1146,2.1216,2.1157,2.1158,2.1158,2.1159,2.1159,2.1228,2.1216,2.1214,2.1202,2.1199,2.1193,2.1181,2.1182,2.1171,2.1158,2.1163,2.1146,2.1139,2.1123,2.1117,2.1102,2.111,2.1102,2.1099,2.1097,2.1094,2.1151,2.11,2.11,2.11,2.11,2.11,0,2.1172,2.1172,2.1162,2.1154,2.1144,2.1156,2.115,2.1141,2.1126,2.1121,2.111,2.1092,2.1078,2.1076,2.1062,2.105,2.1053,2.1046,2.1046,2.1044,2.1088,2.1094,2.1044,2.1044,2.1044,2.1044,2.1044,2.1044,2.1141,2.1121,2.1125,2.1103,2.1102,2.1087,2.1083,2.1077,2.1073,2.1053,2.1043,2.1042,2.1038,2.1024,2.1011,2.101,2.1004,2.0995,2.0995,2.1036,2.1041,2.1047,2.1052,2.0994,2.0994,2.0953,2.0952,2.0952]}]]